SCP
0 0 0 0 0 0 0 0 0 0 0 0 0 0 0 0 0 0 0 0 0 0 0 0 1 1 0 0 0 0 0 0 0 0 0 0 0 0 0 0 0 0 0 0 0 0 0 0 0
0 0 0 0 0 0 0 0 0 0 0 0 0 0 0 0 0 0 0 0 0 0 0 0 1 1 1 0 0 0 0 0 0 0 0 0 0 0 0 0 0 0 0 0 0 0 0 0 0
0 0 0 0 0 0 0 0 0 0 0 0 0 0 0 0 0 0 0 0 0 0 0 0 0 1 1 0 0 0 0 0 0 0 0 0 0 0 0 0 0 0 0 0 0 0 0 0 0
0 0 0 0 0 0 0 0 0 0 0 0 0 0 0 0 0 0 0 0 0 0 0 0 0 1 1 0 0 0 0 0 0 0 0 0 0 0 0 0 0 0 0 0 0 0 0 0 0
0 0 0 0 0 0 0 0 0 0 0 0 0 0 0 0 0 0 0 0 0 0 0 0 0 0 0 0 0 0 0 0 0 0 0 0 0 0 0 0 0 0 0 0 0 0 0 0 0
0 0 0 0 0 0 0 0 0 0 0 0 0 0 0 0 0 0 0 0 0 0 0 0 0 0 0 0 0 0 0 0 0 0 0 0 0 0 0 0 0 0 0 0 0 0 0 0 0
0 0 0 0 0 0 0 0 0 0 0 0 0 0 0 0 0 0 0 0 0 0 0 0 0 0 0 0 0 0 0 0 0 0 0 0 0 0 0 0 0 0 0 0 0 0 0 0 0
0 0 0 0 0 0 0 0 0 0 0 0 0 0 0 0 0 0 0 0 0 0 0 0 0 0 0 0 0 0 0 0 0 0 0 0 0 0 0 0 0 0 0 0 0 0 0 0 0
0 0 0 0 0 0 0 0 0 0 0 0 0 0 0 0 0 0 0 0 0 0 0 0 0 0 0 0 0 0 0 0 0 0 0 0 0 0 0 0 0 0 0 0 0 0 0 0 0
0 0 0 0 0 0 0 0 0 0 0 0 0 0 0 0 0 0 0 0 0 0 0 0 0 0 0 0 0 0 0 0 0 0 0 0 0 0 0 0 0 0 0 0 0 0 0 0 0
0 0 0 0 0 0 0 0 0 0 0 0 0 0 0 0 0 0 0 0 0 0 0 0 0 0 0 0 0 0 0 0 0 0 0 0 0 0 0 0 0 0 0 0 0 0 0 0 0
0 0 0 0 0 0 0 0 0 0 0 0 0 0 0 0 0 0 0 0 0 0 0 0 0 0 0 0 0 0 0 0 0 0 0 0 0 0 0 0 0 0 0 0 0 0 0 0 0
0 0 0 0 0 0 0 0 0 0 0 0 0 0 0 0 0 0 0 0 0 0 0 0 0 0 0 0 0 0 0 0 0 0 0 0 0 0 0 0 0 0 0 0 0 0 0 0 0
0 0 0 0 0 0 0 0 0 0 0 0 0 0 0 0 0 0 0 0 0 0 0 0 0 0 0 0 0 0 0 0 0 0 0 0 0 0 0 0 0 0 0 0 0 0 0 0 0
0 0 0 0 0 0 0 0 0 0 0 0 0 0 0 0 0 0 0 0 0 0 0 0 0 0 0 0 0 0 0 0 0 0 0 0 0 0 0 0 0 0 0 0 0 0 0 0 0
0 0 0 0 0 0 0 0 0 0 0 0 0 0 0 0 0 0 0 0 0 0 0 0 0 0 0 0 0 0 0 0 0 0 0 0 0 0 0 0 0 0 0 0 0 0 0 0 0
0 0 0 0 0 0 0 0 0 0 0 0 0 0 0 0 0 0 0 0 0 0 0 0 0 0 0 0 0 0 0 0 0 0 0 0 0 0 0 0 0 0 0 0 0 0 0 0 0
0 0 0 0 0 0 0 0 0 0 0 0 0 0 0 0 0 0 0 0 0 0 0 0 0 0 0 0 0 0 0 0 0 0 0 0 0 0 0 0 0 0 0 0 0 0 0 0 0
0 0 0 0 0 0 0 0 0 0 0 0 0 0 0 0 0 0 0 0 0 0 0 0 0 0 0 0 0 0 0 0 0 0 0 0 0 0 0 0 0 0 0 0 0 0 0 0 0
0 0 0 0 0 0 0 0 0 0 0 0 0 0 0 0 0 0 0 0 0 0 0 0 0 0 0 0 0 0 0 0 0 0 0 0 0 0 0 0 0 0 0 0 0 0 0 0 0
0 0 0 0 0 0 0 0 0 0 0 0 0 0 0 0 -0 0 0 0 0 0 0 0 0 0 0 0 0 0 0 0 0 0 0 0 0 0 0 0 0 0 0 0 0 0 0 0 0
0 0 0 0 0 0 0 0 0 0 0 0 0 0 0 0 0 0 0 0 0 0 0 0 0 0 0 0 0 0 0 0 0 0 0 0 0 0 0 0 0 0 0 0 0 0 0 0 0
0 0 0 0 0 0 0 0 0 0 0 0 0 0 0 0 0 0 0 0 0 0 0 0 0 0 0 0 0 0 0 0 0 0 0 0 0 0 0 0 0 0 0 0 0 0 0 0 0
0 0 0 0 0 0 0 0 0 0 0 0 0 0 0 0 0 0 0 0 0 0 0 0 0 0 0 0 0 0 0 0 0 0 0 0 0 0 0 0 0 0 0 0 0 0 0 0 0
0 0 0 0 0 0 0 0 0 0 0 0 0 0 0 0 0 0 0 0 0 0 0 0 0 0 0 0 0 0 0 0 0 0 0 0 0 0 0 0 0 0 0 0 0 0 0 0 0
0 0 0 0 0 0 0 0 0 0 0 0 0 0 0 0 0 0 0 0 -0 -0 -0 0 0 0 0 0 0 0 0 0 0 0 0 0 0 0 0 0 0 0 0 0 0 0 0 0 0
0 0 0 0 0 0 0 0 0 0 0 0 0 0 0 0 0 0 0 0 -0 -0 -0 0 0 0 0 0 0 0 0 0 0 0 0 0 0 0 0 0 0 0 0 0 0 0 0 0 0
0 0 0 0 0 0 0 0 0 0 0 0 0 0 0 0 0 0 0 0 -0 -0 -0 0 0 0 0 0 0 0 0 0 0 0 0 0 0 0 0 0 0 0 0 0 0 0 0 0 0
0 0 0 0 0 0 0 0 0 0 0 0 0 0 0 0 0 0 0 0 0 0 0 0 0 0 0 0 0 0 0 0 0 0 0 0 0 0 0 0 0 0 0 0 0 0 0 0 0
0 0 0 0 0 0 0 0 0 0 0 0 0 0 0 0 0 0 0 0 0 0 0 0 0 0 0 0 0 0 0 0 0 0 0 0 0 0 0 0 0 0 0 0 0 0 0 0 0
Wind_Speed
12 9 5 2 2 5 7 5 1 1 1 2 4 4 4 5 5 6 3 5 5 4 4 4 5 5 5 6 7 7 8 8 8 9 9 9 9 10 10 10 11 12 13 14 14 15 15 15 15
9 7 3 2 4 6 6 4 1 1 2 3 4 4 4 6 7 6 3 5 5 5 4 4 5 5 5 5 7 7 8 8 8 8 9 9 9 10 10 10 11 12 13 13 14 14 14 14 14
9 5 3 3 4 6 4 1 2 2 3 3 3 4 4 5 5 4 4 5 5 5 5 5 6 5 5 5 6 7 7 8 7 8 8 8 9 9 10 10 11 12 12 13 13 13 13 13 13
4 3 3 4 7 6 4 1 2 2 2 2 2 4 4 6 4 4 4 5 5 5 5 5 7 7 6 5 6 6 7 8 7 7 8 8 8 9 10 11 11 12 12 12 13 13 12 12 11
3 3 4 6 9 7 3 2 1 0 2 2 2 2 4 5 7 6 5 5 5 5 5 5 7 8 7 6 6 6 7 7 7 7 7 8 8 9 10 11 11 11 12 12 12 12 12 11 10
2 3 4 7 7 5 1 2 1 1 1 2 1 1 4 5 6 5 5 5 5 5 5 5 8 8 8 7 6 6 6 6 7 7 6 7 8 9 10 10 11 11 11 11 11 11 11 10 9
2 3 5 6 6 4 1 1 2 2 2 2 2 1 4 5 5 4 4 4 5 6 5 4 4 5 7 8 7 7 7 6 6 6 6 6 7 8 9 10 10 11 10 11 11 11 10 9 8
3 2 5 5 5 3 2 3 3 5 3 4 5 2 2 3 4 4 4 4 5 6 6 5 4 4 3 4 6 7 7 6 5 6 6 6 6 7 8 9 9 10 10 10 10 10 10 9 7
3 3 4 4 4 1 4 3 3 3 2 2 4 5 4 4 4 4 3 4 5 5 5 4 4 4 3 3 4 5 5 6 5 5 6 5 4 4 5 7 8 9 9 10 10 9 9 7 5
1 2 3 3 3 3 3 3 2 2 2 2 3 5 5 4 3 3 3 3 4 4 4 4 4 4 3 3 2 1 2 3 3 3 3 2 2 3 5 7 8 8 8 9 9 8 7 4 2
1 2 2 3 4 3 3 3 3 1 2 2 2 3 3 3 3 3 2 2 2 3 3 3 3 3 3 2 2 1 1 1 2 3 3 2 3 3 4 3 4 5 5 4 5 4 2 2 1
1 2 2 2 3 3 2 2 3 2 1 3 4 3 2 2 2 2 2 3 3 2 3 3 3 3 2 2 2 2 1 1 2 2 3 3 2 2 2 2 2 3 2 3 2 1 2 2 2
2 2 1 1 2 2 2 2 3 3 2 2 2 2 2 1 2 3 3 2 2 2 3 3 3 2 2 2 2 2 1 2 2 2 3 3 3 2 2 2 2 2 2 2 2 1 2 2 2
0 1 2 3 2 2 2 3 3 2 0 0 0 1 1 2 2 2 3 3 3 2 2 2 3 2 2 2 1 1 1 2 2 2 3 3 2 2 3 2 2 2 1 1 2 2 2 2 3
2 2 3 4 3 2 1 4 4 3 2 1 1 0 2 2 3 2 2 2 3 2 2 1 2 2 2 2 1 1 1 2 2 2 2 3 2 2 2 3 2 2 1 2 2 3 3 2 3
4 4 3 2 3 1 1 5 1 2 2 2 1 0 1 2 2 2 2 2 3 3 2 2 2 2 2 2 1 1 1 2 2 2 2 3 3 2 2 2 2 2 2 2 2 2 3 2 2
2 3 4 3 2 1 2 4 1 1 1 1 1 0 1 2 3 3 2 2 2 3 3 2 1 1 1 1 1 1 1 2 2 2 2 2 2 2 2 2 2 2 2 2 2 2 2 3 3
4 5 5 4 2 1 4 5 2 1 1 1 1 1 0 1 2 2 2 2 2 2 2 3 2 1 1 1 1 1 2 2 1 2 2 2 2 2 2 2 2 3 2 2 2 2 2 2 2
5 5 7 6 3 3 6 7 4 2 1 2 1 0 1 1 1 2 1 2 2 3 3 2 2 2 1 0 1 0 1 1 1 2 2 2 2 2 2 2 2 2 2 2 3 3 3 2 2
5 6 6 5 3 4 6 8 4 2 3 2 0 1 1 2 2 3 3 2 2 2 2 2 2 2 1 0 1 1 1 1 1 1 2 2 2 1 2 2 2 2 2 3 3 3 2 1 1
5 4 5 6 6 5 5 6 3 1 1 1 1 1 1 1 2 2 3 3 2 1 1 2 2 2 2 1 1 1 1 1 1 1 1 1 2 1 2 2 2 2 2 2 2 2 2 2 1
5 3 6 6 4 4 2 5 4 1 0 1 1 1 2 2 2 3 3 3 3 3 2 2 2 2 2 1 1 2 2 1 0 1 1 1 1 1 1 2 2 2 2 2 2 2 1 2 2
5 7 7 7 5 5 4 4 5 1 2 2 1 1 2 2 3 3 3 3 3 3 3 3 3 2 1 1 1 2 2 1 0 0 1 1 1 1 1 2 2 2 2 2 2 1 1 1 2
6 6 6 4 2 4 4 4 4 1 2 1 1 1 1 2 3 3 4 4 4 4 3 4 3 2 2 1 0 2 2 1 1 0 1 1 0 1 1 1 2 2 2 2 2 2 2 1 1
4 3 3 2 2 4 2 2 3 1 3 2 1 1 2 2 2 3 3 4 4 4 3 3 4 3 3 1 1 1 2 2 2 1 1 1 0 0 0 1 1 1 1 2 1 2 1 1 1
3 2 0 3 4 4 2 3 2 2 4 4 3 2 3 3 3 3 3 3 3 3 3 3 3 3 3 2 2 1 0 1 1 1 1 1 1 1 1 1 1 1 2 1 2 1 1 1 1
3 1 1 2 4 4 4 3 1 4 5 5 4 3 3 3 3 3 3 3 3 3 3 3 3 3 3 3 2 1 1 0 0 0 0 1 1 1 1 2 1 1 2 2 2 2 2 1 1
2 3 1 1 3 4 5 3 2 3 4 4 3 2 3 3 3 3 3 3 3 2 2 2 2 2 2 2 2 2 1 1 1 0 1 1 1 1 1 2 2 2 2 2 2 2 2 2 1
1 1 2 3 3 3 5 3 2 2 2 3 3 3 3 3 3 3 3 3 2 2 2 2 2 2 2 2 2 2 1 1 1 0 1 1 1 1 2 2 2 2 2 2 3 2 2 3 2
0 1 1 2 4 3 4 6 1 3 2 2 3 3 4 4 3 3 3 3 3 2 3 3 2 2 1 1 1 1 1 1 1 1 1 1 1 1 2 2 2 2 2 2 3 3 3 3 3
Wind_Direction
308 286 269 260 241 230 236 239 259 350 332 16 3 359 38 40 34 90 85 39 34 66 84 82 64 83 93 109 113 115 114 118 117 117 115 112 110 107 104 103 100 99 99 99 97 95 95 94 92
299 293 269 238 234 233 234 224 213 6 44 42 19 13 53 65 61 78 48 23 34 60 77 72 55 79 86 104 115 118 118 115 119 117 115 113 111 110 107 105 103 99 98 97 98 97 96 95 95
286 266 255 233 230 237 236 91 103 106 81 55 43 37 38 51 61 61 37 36 46 57 63 56 54 65 84 89 110 121 118 113 113 116 113 113 113 111 107 103 102 100 99 98 97 97 98 98 97
289 244 240 239 237 244 258 54 69 109 107 70 56 79 74 48 41 55 51 54 55 53 57 56 48 55 67 85 92 117 118 114 109 111 113 114 113 112 107 101 99 99 100 100 101 99 98 100 98
251 249 226 229 238 243 272 15 350 137 136 98 63 85 80 65 58 63 52 58 60 54 56 54 49 53 57 72 86 95 112 113 110 107 117 118 113 110 108 104 100 99 100 102 103 102 99 99 99
258 240 231 232 235 239 284 331 325 322 20 75 97 124 100 68 52 52 48 53 62 62 63 60 46 48 49 58 74 81 91 106 108 105 112 116 112 109 111 109 105 102 101 102 102 101 99 98 96
276 257 247 246 247 251 267 358 16 360 24 9 338 157 120 55 36 48 54 58 61 63 62 58 47 49 48 48 60 70 75 87 100 102 101 108 108 110 112 110 108 106 104 103 102 102 99 97 94
295 284 250 250 254 257 27 27 16 10 4 14 7 30 92 36 31 42 54 62 61 59 57 50 40 37 46 51 58 63 66 69 88 95 90 99 107 111 112 109 109 109 108 107 104 102 102 95 89
287 248 245 258 277 342 47 16 9 23 22 21 28 31 45 61 62 53 39 49 52 53 52 47 35 31 36 48 56 67 67 61 74 91 90 99 119 121 117 111 109 110 111 113 110 106 103 95 85
293 239 250 322 2 15 21 8 357 25 347 349 31 43 57 60 68 76 57 46 45 39 39 44 36 28 34 43 52 60 81 74 67 93 102 95 106 113 111 109 107 107 107 111 112 111 111 102 94
337 261 280 350 20 18 358 351 352 295 317 348 31 59 49 62 59 61 59 50 48 41 31 26 29 30 37 43 49 33 59 71 66 73 81 77 81 95 103 110 108 111 113 112 116 119 116 109 104
213 296 303 323 353 347 335 326 333 325 344 6 22 52 68 66 53 51 44 30 21 34 27 20 28 28 35 50 60 47 54 58 59 64 68 80 86 95 101 112 127 132 132 129 127 131 120 109 104
232 241 310 330 5 345 337 298 291 288 6 22 18 23 51 40 32 43 34 24 17 20 28 17 21 27 33 50 59 52 61 73 63 64 64 74 92 104 104 105 113 124 125 133 136 120 105 96 83
269 278 300 289 279 277 286 273 261 263 74 98 5 11 32 39 35 26 21 11 359 9 34 28 20 22 38 51 64 59 63 94 79 64 58 66 87 101 115 113 105 102 108 129 126 107 95 80 76
252 255 261 259 246 221 305 269 222 214 183 223 230 7 37 32 26 27 10 2 351 349 10 31 23 29 32 42 59 66 63 95 92 79 66 58 73 93 110 125 111 108 118 109 103 98 89 85 76
244 241 243 230 222 190 176 259 219 130 146 207 209 160 71 37 20 10 10 11 358 355 359 13 14 31 28 31 59 58 65 97 98 89 80 64 69 85 97 111 115 111 112 112 118 113 102 93 87
233 260 267 278 203 182 208 255 245 143 169 226 186 168 76 28 12 8 11 8 359 2 6 1 10 43 35 31 49 79 100 101 110 100 89 72 70 86 95 107 105 98 102 102 111 110 116 113 104
296 295 287 287 269 271 250 259 265 268 219 245 255 236 107 30 1 7 13 9 5 14 17 8 0 16 31 58 49 58 102 92 96 106 102 86 78 86 97 107 104 101 107 104 104 108 103 118 125
291 287 286 292 298 290 265 270 272 276 257 241 250 269 20 8 18 42 47 32 24 18 13 5 10 355 29 74 84 101 120 106 92 98 102 93 89 104 114 104 111 108 112 116 112 112 114 107 112
286 284 290 298 311 295 275 278 273 249 226 226 243 359 355 6 30 28 26 45 54 27 3 3 10 353 312 199 147 157 130 143 131 109 96 98 86 106 126 117 124 124 119 115 111 111 114 116 112
291 276 292 297 302 266 270 275 227 188 126 42 38 36 33 48 31 23 25 22 25 20 1 1 1 2 344 345 76 97 96 95 82 92 103 110 102 98 138 135 134 132 126 134 137 127 121 151 165
292 310 299 293 296 276 262 281 264 213 297 2 340 3 34 55 43 33 27 19 15 7 8 7 3 4 353 28 118 146 133 136 187 186 133 111 109 98 129 132 134 141 136 138 150 123 126 151 167
289 307 286 274 267 281 254 254 277 171 264 274 305 1 30 51 53 38 30 26 21 20 14 2 358 352 353 357 174 145 122 124 95 124 116 111 115 91 113 131 137 147 146 147 151 141 141 164 172
304 298 276 253 247 263 239 228 281 290 291 304 334 18 28 46 46 37 29 25 23 27 16 5 360 346 357 359 106 131 134 128 117 90 122 111 119 100 54 115 138 149 148 153 167 162 160 165 189
336 343 341 323 248 252 216 231 263 13 16 44 66 28 32 37 36 25 16 18 19 21 14 6 357 0 359 6 32 106 140 149 157 169 155 142 158 136 229 114 153 146 140 147 152 146 167 175 189
314 342 345 283 284 303 297 252 257 47 38 33 41 55 43 24 13 9 3 14 11 9 7 9 354 354 358 2 6 2 358 156 159 165 168 178 199 196 202 173 166 156 159 166 155 144 168 165 167
326 307 289 278 278 275 263 246 249 22 22 13 14 27 10 353 356 355 356 2 2 2 360 1 353 355 1 4 5 348 339 42 156 139 138 187 199 203 187 165 156 170 179 174 166 165 174 171 185
314 318 327 284 299 287 281 272 309 337 342 347 356 346 330 335 346 344 349 349 350 352 348 356 2 352 351 358 355 358 349 360 315 180 193 215 209 185 179 166 173 179 185 185 171 173 181 176 200
334 334 304 269 259 280 294 286 17 12 358 343 336 332 326 329 335 337 332 327 332 341 345 358 0 358 356 1 352 357 347 329 313 266 243 241 214 172 180 181 183 185 195 198 189 188 188 192 199
55 295 263 249 275 261 273 275 357 39 36 4 342 337 337 332 331 324 321 324 331 344 351 356 353 347 336 338 334 320 317 320 304 311 294 270 239 197 187 176 192 199 207 211 203 201 204 201 202